Jackson, MI

11:07 PM EDT on October 20, 2019 (GMT -0400)
Jackson County-Reynolds

Weather History for KJXN - August, 2019

Change the Weather History Date:

Sunday, August 4, 2019

  Actual Average Record
Temperature  
Mean Temperature 72 °F 70 °F  
Max Temperature 86 °F 81 °F 96 °F (1955)
Min Temperature 58 °F 60 °F 48 °F (1978)
Degree Days  
Heating Degree Days 0 0  
Month to date heating degree days 0 0  
Since 1 June heating degree days 58 66  
Since 1 July heating degree days 0 11  
Cooling Degree Days 7 6  
Month to date cooling degree days 14 24  
Year to date cooling degree days 419 389  
Since 1 June cooling degree days 409 352  
Growing Degree Days 22 (Base 50)    
Moisture  
Dew Point 63 °F    
Average Humidity 74    
Maximum Humidity 100    
Minimum Humidity 48    
Precipitation  
Precipitation 0.00 in 0.11 in 1.13 in (1989)
Month to date precipitation 0.00 0.46  
Year to date precipitation 20.19 17.91  
Sea Level Pressure  
Sea Level Pressure 30.02 in    
Wind  
Wind Speed 4 mph (WSW)    
Max Wind Speed 12 mph    
Max Gust Speed 15 mph    
Visibility 10 miles    
Events Thunderstorm    
T = Trace of Precipitation, MM = Missing Value Source: NWS Daily Summary

Daily Weather History Graph

Daily Weather History Graph

Search for Another Location

Airport or City:

Astronomy

Aug. 04, 2019 Rise Set
Actual Time 6:33 AM EDT 8:53 PM EDT
Civil Twilight 6:02 AM EDT 9:25 PM EDT
Nautical Twilight 5:23 AM EDT 10:03 PM EDT
Astronomical Twilight 4:39 AM EDT 10:46 PM EDT
Moon 10:42 AM EDT (8/4) 11:27 PM EDT (8/4)
Length of Visible Light 15h 22m
Length of Day
14h 20m
Waxing Crescent, 18% of the Moon is Illuminated
Aug 4
Waxing Crescent
Aug 7
First Quarter
Aug 15
Full
Aug 23
Last Quarter
Aug 30
New

Hourly Weather History & Observations

Time (EDT) Temp. Heat Index Dew Point Humidity Pressure Visibility Wind Dir Wind Speed Gust Speed Precip Events Conditions
12:56 AM 62.1 °F - 61.0 °F 96% 30.04 in 10.0 mi Calm Calm - N/A   Clear
1:56 AM 61.0 °F - 61.0 °F 100% 30.04 in 10.0 mi SSW 3.5 mph - N/A   Clear
2:56 AM 62.1 °F - 61.0 °F 96% 30.04 in 10.0 mi Calm Calm - N/A   Clear
3:56 AM 62.1 °F - 60.1 °F 93% 30.03 in 10.0 mi SW 3.5 mph - N/A   Clear
4:56 AM 60.1 °F - 60.1 °F 100% 30.02 in 7.0 mi SW 3.5 mph - N/A   Clear
5:56 AM 59.0 °F - 59.0 °F 100% 30.02 in 8.0 mi WSW 3.5 mph - N/A   Clear
6:38 AM 59.0 °F - 57.9 °F 96% 30.05 in 1.2 mi SW 3.5 mph - N/A   Clear
6:48 AM 59.0 °F - 59.0 °F 100% 30.05 in 10.0 mi SW 3.5 mph - N/A   Clear
6:56 AM 60.1 °F - 60.1 °F 100% 30.04 in 10.0 mi SW 3.5 mph - N/A   Clear
7:56 AM 64.0 °F - 62.1 °F 93% 30.04 in 10.0 mi WSW 3.5 mph - N/A   Clear
8:56 AM 70.0 °F - 62.1 °F 76% 30.05 in 10.0 mi West 3.5 mph - N/A   Clear
9:56 AM 75.9 °F - 66.0 °F 71% 30.05 in 10.0 mi Variable 3.5 mph - N/A   Clear
10:56 AM 78.1 °F - 66.0 °F 66% 30.04 in 10.0 mi WNW 4.6 mph - N/A   Clear
11:56 AM 80.1 °F 81.9 °F 64.9 °F 60% 30.04 in 10.0 mi Variable 4.6 mph - N/A   Clear
12:56 PM 82.0 °F 84.1 °F 66.0 °F 58% 30.04 in 10.0 mi WNW 6.9 mph - N/A   Scattered Clouds
1:56 PM 82.0 °F 84.1 °F 66.0 °F 58% 30.02 in 10.0 mi West 6.9 mph - N/A   Scattered Clouds
2:56 PM 82.9 °F 84.6 °F 64.9 °F 54% 30.01 in 10.0 mi West 8.1 mph - N/A   Partly Cloudy
3:56 PM 84.0 °F 85.8 °F 64.9 °F 53% 30.00 in 10.0 mi West 5.8 mph - N/A   Partly Cloudy
4:56 PM 84.9 °F 86.6 °F 64.9 °F 51% 29.99 in 10.0 mi NW 6.9 mph - N/A   Mostly Cloudy
5:03 PM 82.9 °F 84.4 °F 64.0 °F 53% 30.00 in 10.0 mi WNW 6.9 mph - N/A Thunderstorm Thunderstorm
5:20 PM 82.0 °F 83.8 °F 64.9 °F 56% 30.00 in 10.0 mi NNE 6.9 mph - N/A   Mostly Cloudy
5:56 PM 86.0 °F 87.6 °F 64.9 °F 49% 29.99 in 10.0 mi Variable 5.8 mph - N/A   Scattered Clouds
6:56 PM 82.9 °F 84.6 °F 64.9 °F 54% 29.98 in 10.0 mi Variable 4.6 mph - N/A   Partly Cloudy
7:56 PM 78.1 °F - 66.9 °F 68% 29.99 in 10.0 mi South 3.5 mph - N/A   Clear
8:56 PM 73.9 °F - 66.0 °F 76% 29.99 in 10.0 mi Calm Calm - N/A   Clear
9:56 PM 73.0 °F - 66.0 °F 79% 29.99 in 10.0 mi West 3.5 mph - N/A   Mostly Cloudy
10:56 PM 73.9 °F - 66.9 °F 79% 29.99 in 10.0 mi West 4.6 mph - N/A   Mostly Cloudy
11:56 PM 71.1 °F - 64.9 °F 81% 29.99 in 10.0 mi West 3.5 mph - N/A   Clear